Theta_e
322 317 314 313 313 312 312 310 298 306 304 293 294 298 298 306 307 306 305 307 305 308 307 308 306 306 303 302 304 307 311 312 317 313 312 325 337 339 340 340 340 342 341 344 346 349 350 353 353 354 354 353 353 353 353 353 353 352 352 352 351 351 350 350 349 349 349 348 347 346 345 343 342 344 344 345 345 346 347 347 347 348 346 345 345 344 345 344 344 346 344 337 338 339 340 341 342
311 311 311 311 311 315 306 308 302 298 298 292 294 298 299 304 305 304 304 307 305 305 305 305 306 305 305 306 305 308 318 319 323 324 328 333 338 338 340 342 340 340 342 342 346 346 347 351 353 354 353 354 353 353 352 352 353 352 352 352 352 351 350 350 350 349 349 348 347 347 345 344 342 342 344 344 343 343 343 344 345 346 345 344 342 340 340 340 338 337 337 337 338 339 341 339 339
311 310 312 311 310 311 309 308 295 294 292 290 294 297 301 299 301 304 306 304 305 306 306 306 306 307 305 307 305 305 310 327 328 328 326 334 332 334 340 341 342 342 341 342 345 344 346 349 353 353 354 354 353 353 353 352 352 352 352 351 352 352 351 350 350 349 349 348 348 347 346 344 343 342 342 343 343 342 343 343 343 344 345 343 342 340 340 339 338 337 337 339 339 340 339 338 337
315 313 310 310 306 310 303 302 297 292 290 292 293 301 300 299 302 303 304 306 305 306 307 306 305 309 310 303 308 312 315 323 329 328 325 330 331 336 339 341 344 342 341 343 343 344 344 348 352 353 353 353 354 353 353 352 352 352 352 352 351 352 351 351 350 350 349 348 348 347 345 345 343 343 343 342 342 341 340 339 341 345 346 346 346 340 340 338 337 337 337 339 339 340 339 338 337
312 314 314 310 309 300 303 299 296 294 289 293 292 300 302 302 303 302 303 304 305 305 308 307 306 312 312 312 319 309 318 324 325 332 330 332 336 338 339 342 341 340 340 342 343 344 342 348 350 352 353 354 353 353 353 352 352 352 352 352 352 352 351 351 350 350 350 349 348 347 346 345 344 343 342 343 343 341 340 339 338 340 344 343 340 340 339 337 338 337 337 339 339 339 339 337 337
310 309 315 313 306 309 303 294 292 292 296 298 296 299 300 304 304 304 304 305 305 304 304 304 304 308 306 310 318 315 327 317 327 331 332 330 336 340 340 342 339 340 340 342 342 343 342 346 348 351 353 354 353 353 353 352 352 352 351 352 352 352 352 352 351 351 350 350 348 347 346 345 344 343 342 341 342 341 340 339 338 338 341 346 341 339 337 337 338 338 338 339 339 338 339 337 338
308 308 308 310 304 308 296 292 292 294 297 300 299 300 301 301 304 304 303 303 304 305 305 305 306 305 301 311 316 326 330 330 328 329 334 334 337 340 341 340 340 339 340 342 342 343 346 345 347 350 352 354 353 353 353 353 352 352 352 352 352 352 352 352 351 351 350 350 348 347 347 346 345 346 344 341 341 340 339 338 338 339 340 346 343 340 337 337 339 338 338 339 339 339 340 339 340
313 308 304 298 297 297 292 292 293 296 297 302 303 302 303 303 304 302 302 302 300 301 302 305 305 304 303 311 304 324 328 332 331 333 334 336 337 339 341 339 338 338 340 341 342 345 351 344 346 348 351 353 353 353 353 353 352 352 351 351 352 352 352 352 351 351 350 349 348 348 347 347 347 345 342 341 340 339 338 338 339 339 340 344 344 342 339 343 342 341 339 339 339 341 341 341 342
309 307 312 304 292 298 291 290 292 298 298 300 301 303 307 304 304 301 300 302 302 303 303 303 303 299 300 305 304 321 324 329 330 334 334 335 336 339 340 339 338 339 342 341 346 346 345 344 345 347 349 351 352 352 352 352 351 351 351 351 352 352 352 352 351 351 350 349 349 349 348 347 346 344 342 341 340 340 339 339 340 338 339 343 341 339 338 341 343 342 340 340 341 342 342 342 341
305 304 297 297 299 289 290 291 290 294 296 299 300 301 302 303 302 302 300 299 301 303 303 304 303 300 303 302 314 319 320 325 326 327 332 334 335 337 339 340 340 340 341 342 347 346 345 349 344 345 346 348 350 351 350 350 350 350 351 351 351 351 351 351 351 351 350 350 349 349 348 347 346 344 342 342 341 342 340 340 340 338 341 341 339 338 338 341 343 342 342 343 343 343 342 342 341
298 300 305 296 289 286 288 290 292 295 296 299 300 302 303 302 301 299 299 299 302 300 301 302 301 300 300 300 302 323 324 322 321 321 326 332 335 337 337 340 340 340 340 343 345 347 347 346 349 343 345 346 347 348 349 349 350 350 350 350 350 350 351 351 350 350 350 350 349 349 348 347 346 345 344 343 343 343 342 342 342 342 342 341 340 338 341 345 343 343 343 343 343 343 342 342 341
295 295 299 290 289 288 289 289 292 294 297 298 298 301 299 301 300 298 298 296 298 300 300 301 299 302 298 298 306 318 319 319 319 320 322 326 329 333 335 339 341 341 343 344 344 346 347 347 347 348 342 342 343 344 346 347 349 350 349 350 350 350 350 350 350 349 349 349 349 348 348 347 346 345 345 342 341 341 342 342 342 344 343 342 341 343 346 345 344 344 343 343 342 341 341 341 340
299 301 292 289 289 290 291 291 292 294 294 295 296 300 301 301 299 299 299 298 298 297 299 301 301 302 297 297 313 317 316 316 317 318 320 320 321 321 330 331 341 342 343 343 342 344 346 346 345 346 341 339 339 341 342 344 346 348 348 348 349 349 349 349 348 348 348 349 348 347 347 347 346 346 344 343 341 341 342 340 341 343 344 343 343 346 346 345 344 344 343 342 341 340 340 340 340
300 301 298 289 293 290 289 290 291 290 291 295 297 300 300 299 300 300 298 296 297 297 302 304 302 300 297 299 312 314 315 316 315 317 317 319 320 319 323 323 331 339 343 343 340 343 344 344 344 345 340 341 341 339 339 341 343 346 345 346 346 347 347 347 346 346 347 347 346 345 345 346 346 345 344 342 340 339 340 339 340 341 343 343 344 346 345 345 344 343 343 341 341 340 339 339 339
299 302 295 293 290 290 292 289 290 290 291 296 299 298 298 301 300 299 298 295 297 302 303 304 303 298 293 295 297 313 316 317 315 318 317 315 317 317 320 319 323 326 328 341 340 341 342 343 341 342 342 342 342 341 340 339 340 341 341 342 343 344 344 344 343 343 343 343 343 343 344 344 344 343 342 341 339 338 339 339 339 339 344 344 345 346 345 345 344 343 343 341 340 339 339 339 340
306 299 295 290 287 289 291 291 292 291 292 296 297 298 297 298 300 298 299 299 298 301 302 297 303 298 300 298 306 308 318 315 316 316 313 314 314 315 313 315 314 316 320 324 336 340 340 340 340 342 342 342 341 340 340 340 337 337 337 339 340 341 341 341 339 339 340 339 339 340 341 342 342 341 341 340 337 336 338 337 338 338 342 344 344 345 345 344 343 343 342 341 340 339 339 340 341
305 303 290 288 286 289 291 290 292 288 294 295 298 296 294 295 299 300 301 302 298 299 299 301 300 302 299 303 312 317 316 316 315 312 311 310 309 306 307 307 308 312 318 318 324 326 334 337 340 341 341 342 339 338 338 341 339 336 336 336 336 337 338 338 336 334 335 334 334 335 337 340 340 339 339 337 336 335 333 333 337 336 339 342 343 343 343 343 343 343 341 340 340 340 339 340 339
302 291 289 286 288 288 292 291 293 295 293 294 295 296 295 293 297 299 299 298 297 297 297 300 301 300 301 306 316 315 314 314 313 310 308 306 306 303 302 302 303 306 311 311 316 323 325 329 330 331 332 336 338 340 340 341 338 336 338 338 338 336 335 335 337 339 341 340 331 337 340 340 340 339 338 339 335 335 332 330 333 335 337 339 341 342 342 342 343 342 341 340 340 339 337 336 335
292 289 289 286 289 292 296 295 296 294 294 296 296 296 295 295 297 298 295 294 295 294 295 297 297 299 301 305 312 311 312 312 312 310 308 307 305 305 304 304 302 305 306 306 310 317 320 322 325 324 326 326 328 329 333 334 335 335 337 337 338 335 338 339 340 340 340 340 339 340 340 340 339 338 337 337 336 330 333 328 331 333 335 337 339 340 340 340 341 341 341 340 339 337 335 333 331
295 289 286 288 293 293 295 297 297 297 297 295 295 296 294 297 297 299 294 293 294 293 293 294 295 297 299 303 309 310 310 310 310 310 309 309 308 309 308 307 304 304 305 304 305 318 318 317 320 321 321 322 323 323 327 328 328 329 332 333 334 335 336 337 340 340 341 341 341 340 340 340 339 337 337 337 335 334 332 327 328 331 333 334 336 338 338 338 339 339 338 338 337 335 332 332 331
294 290 287 289 293 291 293 295 296 300 296 296 294 295 294 295 296 297 295 292 293 293 296 296 295 297 299 301 305 309 309 308 308 309 309 309 310 311 310 311 306 305 306 306 307 313 315 315 317 317 319 319 320 320 321 321 324 324 326 330 330 331 333 335 337 339 341 341 341 340 339 339 339 338 335 335 335 334 333 330 329 332 334 335 332 336 335 336 337 336 335 334 333 333 330 328 330
297 290 292 292 293 292 296 296 297 298 299 294 292 291 294 300 295 294 294 291 289 295 297 300 300 300 301 302 303 307 307 307 307 307 308 309 309 310 311 308 310 308 307 304 304 309 311 313 316 316 317 317 318 315 317 317 321 319 322 325 327 329 331 332 333 336 339 340 340 339 339 338 338 337 335 333 334 333 332 332 330 330 334 335 334 335 334 335 335 334 333 333 332 332 329 327 329
288 292 292 293 293 292 296 296 299 297 298 296 294 297 297 298 297 296 294 293 294 298 302 303 303 305 306 305 303 305 306 306 306 307 307 308 309 311 310 308 306 304 304 303 304 308 309 310 313 316 315 316 317 315 316 316 315 316 317 319 320 321 326 330 330 332 337 340 340 339 338 338 337 337 335 333 333 333 331 332 331 330 332 334 334 334 333 335 334 333 332 332 331 330 329 326 327
292 289 292 293 295 293 295 293 298 293 297 297 299 299 295 297 292 298 294 296 297 298 298 300 305 307 307 304 305 306 305 305 306 308 308 309 310 311 311 309 306 304 304 305 304 306 310 308 310 312 314 315 315 315 314 313 313 316 316 319 319 318 318 325 328 330 333 337 340 340 338 338 337 336 335 333 333 333 332 332 333 331 330 332 334 335 332 334 334 333 332 331 330 328 328 326 327
292 290 293 293 294 295 297 294 293 295 295 296 299 295 294 296 294 296 294 296 299 299 299 300 300 304 304 302 302 305 305 305 306 307 309 309 310 312 311 309 307 304 303 304 304 303 306 309 309 310 311 314 313 314 313 312 313 315 313 314 316 321 317 318 319 323 328 331 338 339 338 338 337 336 335 334 334 333 333 332 332 332 331 330 333 334 332 332 333 332 331 331 330 328 327 325 327
294 294 295 294 294 295 295 297 295 294 294 296 293 292 295 296 299 294 295 297 299 301 301 301 301 299 301 301 301 301 303 305 305 306 307 309 310 310 310 309 307 305 304 304 303 303 304 308 309 310 311 312 311 312 312 311 312 312 314 314 316 318 318 319 317 317 318 324 330 337 338 338 337 336 336 335 334 334 333 333 332 331 330 329 330 332 332 331 332 331 331 330 329 328 326 324 327
295 295 295 293 293 295 299 296 297 297 294 293 291 291 292 296 295 288 297 298 299 298 298 300 300 299 299 301 302 301 301 304 306 306 306 306 306 307 308 309 306 306 305 304 304 303 305 308 309 310 310 311 310 309 309 310 311 310 313 314 317 317 315 318 319 319 319 320 323 329 336 338 338 337 336 336 335 335 334 333 332 331 329 328 329 331 332 331 332 331 330 330 329 328 325 323 326
296 292 291 292 294 295 296 297 296 296 294 294 293 291 293 294 295 291 295 302 300 298 299 299 299 299 299 300 301 302 301 301 304 305 305 306 305 305 305 306 306 305 304 304 304 304 305 307 308 309 310 310 310 309 310 310 311 311 312 314 314 315 316 316 316 317 319 321 323 323 328 333 336 337 337 336 335 335 335 334 334 332 330 329 329 330 331 330 330 331 330 329 329 328 325 323 326
294 292 287 289 291 290 293 292 295 296 294 296 296 291 289 290 289 294 297 300 301 299 299 300 300 300 299 299 300 301 301 300 300 302 305 306 306 306 304 306 306 305 305 305 305 305 305 307 308 308 310 309 308 308 308 309 311 312 312 313 314 317 316 317 315 316 317 317 320 325 327 328 328 332 335 337 335 335 334 334 334 334 332 330 329 329 330 329 329 330 329 329 328 327 324 322 325
296 292 288 287 287 287 291 294 294 294 295 295 294 281 284 288 292 295 297 298 298 297 295 296 300 300 299 299 299 300 301 301 300 300 301 304 305 304 303 304 305 305 304 303 304 304 307 310 311 310 310 309 309 308 308 308 310 311 312 312 313 315 313 314 314 314 314 315 317 321 325 327 326 327 327 333 336 336 335 333 332 332 333 332 330 329 330 329 328 329 329 329 325 325 323 322 323
286 290 289 282 281 282 290 291 293 291 296 294 293 280 283 288 294 296 297 299 297 295 295 295 295 298 300 300 300 300 301 302 302 301 302 302 303 304 303 302 303 303 303 303 303 304 306 308 311 310 310 308 309 308 309 308 309 310 310 311 312 312 314 314 313 313 312 313 313 316 321 323 324 325 327 328 333 334 334 334 333 333 334 333 332 329 329 329 328 328 328 328 327 326 324 322 323
289 286 280 283 281 283 289 295 293 289 295 295 292 282 283 287 291 303 301 299 298 295 295 295 295 296 301 300 299 299 299 301 303 304 304 304 304 304 304 304 304 303 304 303 303 304 305 306 308 307 306 306 307 308 308 308 309 308 308 313 311 311 312 315 312 312 313 312 312 312 316 319 321 323 324 325 326 330 332 331 331 330 331 331 331 330 329 328 327 327 328 328 326 324 323 320 322
288 284 282 281 283 283 288 290 293 294 292 294 291 283 289 289 296 296 300 299 298 296 295 295 296 297 298 299 298 298 299 300 302 303 304 305 305 305 304 304 305 304 304 304 303 303 304 305 307 306 306 305 305 306 307 307 307 307 308 310 311 311 311 311 311 312 312 313 312 312 314 317 318 319 320 322 322 323 325 326 327 331 330 330 330 329 328 327 327 327 327 327 327 325 322 321 322
281 285 281 283 282 283 282 286 288 293 291 287 291 287 286 289 293 296 297 299 297 295 295 296 297 296 296 296 297 298 298 299 300 302 304 305 305 305 305 306 305 305 305 305 304 304 304 305 305 305 305 305 304 304 305 307 307 307 308 311 312 311 312 311 310 310 310 310 311 311 312 314 315 316 316 318 320 321 322 325 326 328 329 330 330 330 329 327 327 327 326 327 327 325 322 321 321
279 281 281 282 284 284 285 282 287 290 291 288 288 287 287 288 291 294 296 297 297 295 295 294 294 294 296 297 297 298 298 299 300 301 304 305 305 306 305 304 305 305 306 305 303 303 303 303 304 305 305 304 304 304 305 307 307 307 309 312 312 312 313 312 309 308 309 309 309 310 312 314 314 315 316 315 316 317 320 322 322 322 325 325 327 329 329 328 327 327 326 326 326 325 323 322 321
284 285 284 283 282 283 283 288 289 289 287 286 286 285 286 288 289 291 293 297 295 295 294 293 293 294 295 296 297 298 298 299 301 303 304 306 305 306 306 306 305 305 305 305 303 302 302 302 302 303 304 304 304 304 305 305 306 306 308 310 311 312 312 311 311 308 309 308 309 310 312 313 313 315 315 315 314 314 315 321 321 320 320 321 322 323 325 326 326 326 326 325 324 323 322 321 318
287 286 285 283 284 285 289 288 289 290 287 285 286 286 286 287 288 290 292 293 292 293 293 293 294 294 294 295 296 297 298 299 302 303 305 306 306 306 307 306 304 303 303 303 303 302 302 302 302 302 304 304 303 303 304 305 305 306 308 310 310 311 311 310 311 310 309 308 309 311 311 313 313 314 314 313 314 314 314 313 321 321 320 319 318 319 321 323 325 326 326 323 323 322 321 319 317
286 283 282 281 284 280 288 288 288 290 285 282 286 285 285 286 288 290 292 292 291 292 292 293 294 294 295 295 295 296 298 300 302 302 305 307 306 306 306 305 303 301 302 303 302 302 302 302 302 302 303 304 304 304 304 305 306 308 309 310 310 310 310 309 308 309 309 310 311 312 312 312 313 313 312 313 314 313 314 313 315 316 319 320 320 318 318 318 322 324 324 323 322 321 319 318 314
285 283 282 281 281 284 287 287 288 290 286 281 284 283 283 285 287 289 290 291 292 293 293 293 293 293 295 295 296 296 297 298 299 300 301 304 307 306 305 304 303 302 302 303 303 302 301 301 302 302 303 303 304 304 305 306 308 309 309 308 309 308 310 310 308 309 310 309 310 312 314 314 314 313 313 313 314 313 313 312 313 312 313 316 315 316 315 316 317 320 322 322 319 319 315 315 314
283 282 281 279 282 281 278 282 287 288 284 281 283 280 282 284 286 288 291 291 292 294 294 294 294 293 293 294 295 296 296 296 297 298 298 300 301 306 304 302 302 302 301 302 302 301 301 301 301 302 303 303 303 305 306 307 308 308 308 308 309 307 307 309 309 309 310 310 310 313 315 315 315 314 313 312 313 312 311 310 309 309 309 311 314 315 315 315 317 317 319 319 320 317 313 312 314
284 284 282 281 281 280 281 280 285 285 285 284 282 279 281 283 282 283 287 291 291 292 293 293 294 295 295 296 296 296 296 296 297 297 298 298 300 302 304 303 302 302 301 301 301 301 302 300 301 302 303 303 303 305 306 307 307 306 307 307 308 307 309 307 307 307 310 310 312 313 315 315 315 314 314 313 311 311 311 311 310 310 309 310 313 314 314 315 317 319 321 321 319 318 311 311 312
282 285 284 284 282 279 282 282 283 280 278 282 283 275 277 282 281 283 285 287 288 290 290 291 292 293 294 294 294 296 297 298 297 297 298 298 300 302 303 303 302 302 301 301 302 302 301 300 300 301 302 303 304 304 306 307 307 306 305 305 305 305 305 306 307 308 308 310 311 312 313 314 314 313 313 313 312 311 311 312 311 311 310 310 311 312 314 313 315 318 320 321 320 319 314 310 310
280 280 287 286 285 281 281 281 280 275 274 281 285 276 275 282 280 281 281 283 286 289 290 291 292 293 293 294 295 295 296 296 297 298 297 298 300 301 302 302 302 301 301 301 301 301 300 300 300 301 302 304 305 305 306 307 306 306 306 305 306 306 305 306 306 306 307 307 310 309 311 312 313 313 313 313 313 312 312 311 311 311 311 311 311 310 312 313 313 315 318 320 321 319 314 310 310
278 284 285 286 284 283 281 281 279 277 282 282 281 281 275 277 281 281 281 281 283 285 289 291 292 292 293 294 295 295 296 296 297 297 297 297 299 300 301 301 301 301 301 300 300 300 300 300 301 301 303 304 305 306 306 307 306 305 306 306 306 305 304 302 303 304 305 307 308 309 310 311 313 314 314 313 313 312 311 311 311 311 311 311 311 311 312 312 312 313 314 317 319 319 316 312 310
282 284 288 285 285 284 282 280 278 278 277 275 279 281 275 275 280 281 283 279 281 284 286 289 291 293 294 295 296 296 297 297 297 297 297 297 298 299 300 300 301 300 300 300 300 300 300 301 301 302 302 304 304 306 306 306 306 306 307 306 304 302 302 302 302 303 304 305 307 309 310 311 313 314 314 313 311 311 310 310 310 310 310 310 310 312 312 313 313 312 312 313 315 315 315 314 312
287 286 288 287 286 284 281 278 278 276 275 271 276 279 274 275 279 279 282 280 282 284 286 288 290 292 293 294 295 296 296 296 297 297 297 297 298 298 299 299 299 300 300 300 300 301 301 301 301 301 301 303 304 306 306 305 306 306 305 304 302 300 302 303 301 302 305 307 307 308 309 309 310 311 311 310 310 310 310 310 310 310 310 311 310 311 312 313 314 314 313 313 314 313 314 312 312
290 286 282 281 280 279 279 279 277 275 271 273 276 278 276 271 279 280 281 281 285 285 285 288 290 291 293 295 295 296 296 296 297 297 298 298 298 297 298 298 298 299 299 300 300 301 301 300 300 300 301 303 304 306 305 305 305 305 304 303 302 301 301 302 302 302 304 306 308 306 306 307 307 308 308 310 309 309 309 309 310 310 310 310 310 311 312 313 314 315 315 314 314 314 313 312 311
287 282 280 279 276 279 276 276 277 270 268 275 277 276 277 271 277 278 286 288 287 288 287 287 289 290 291 293 294 294 295 296 297 297 297 296 296 296 296 296 297 298 299 300 300 300 300 300 300 300 300 302 304 305 306 305 305 304 304 304 303 303 302 303 302 301 302 303 305 306 307 306 307 308 307 307 308 309 309 309 309 310 310 311 311 312 312 313 314 315 316 315 315 315 314 313 312
285 282 281 276 272 275 268 272 269 270 269 273 275 278 273 275 280 283 284 285 287 289 290 289 289 290 291 291 292 293 292 292 294 294 295 296 295 295 295 295 296 299 299 300 300 300 300 301 300 300 300 302 304 304 304 304 304 304 304 304 303 304 303 303 302 302 303 304 305 305 304 304 305 307 307 308 308 308 309 309 310 310 311 312 313 313 313 313 314 315 315 315 315 315 314 313 312
282 280 278 276 271 270 266 271 270 272 274 274 275 280 274 277 282 286 285 287 288 289 290 290 290 290 291 292 292 292 292 291 291 292 293 294 295 295 295 296 297 299 299 299 299 299 300 300 300 299 300 302 303 303 303 303 304 304 304 304 305 305 304 304 304 304 303 303 305 304 304 304 304 304 304 305 306 306 308 309 310 311 311 312 313 313 314 314 315 314 314 314 314 315 315 313 313
281 284 282 278 277 273 268 272 268 269 272 273 275 273 268 276 278 285 287 289 289 291 291 292 291 291 291 291 292 292 292 290 290 291 292 293 295 295 295 296 297 297 298 299 299 299 299 299 299 299 300 301 302 302 302 303 303 303 303 304 304 305 304 304 303 304 304 303 302 303 303 303 303 304 304 305 304 306 308 310 310 311 312 313 313 313 313 314 314 314 313 314 313 313 312 312 312
283 284 284 280 277 284 276 277 276 274 271 268 271 271 275 280 288 286 287 287 288 290 290 290 290 291 291 291 291 291 292 292 291 291 291 292 293 294 295 295 296 296 296 298 298 299 299 299 298 299 300 301 301 301 302 302 302 303 303 303 304 303 303 304 304 303 303 303 303 303 303 303 303 302 303 303 305 305 308 310 311 311 313 313 313 313 313 313 313 313 312 311 311 312 311 311 311
281 282 277 280 286 284 280 281 278 279 277 273 278 276 277 282 286 288 288 287 286 286 288 287 287 289 291 291 291 291 291 291 292 291 291 292 292 293 294 294 295 295 296 297 298 299 298 298 298 298 299 300 300 300 301 301 302 302 302 303 303 302 302 302 302 302 302 303 304 303 302 302 301 302 305 305 307 307 310 310 312 313 313 313 313 313 313 313 312 311 311 310 310 310 310 310 311
283 276 280 285 286 283 279 273 277 275 273 275 279 273 275 276 274 286 286 286 287 288 287 287 288 288 289 291 292 292 292 292 293 292 292 293 293 293 294 294 295 295 296 296 297 298 298 298 298 298 299 299 299 300 300 301 301 301 302 302 302 302 302 302 301 301 302 303 301 301 300 302 302 304 305 308 310 310 310 310 312 312 312 312 312 313 312 311 310 310 310 310 310 309 309 309 310
284 281 287 280 273 274 278 276 270 271 271 273 278 277 277 278 279 284 284 284 286 288 289 289 289 288 289 290 291 292 292 292 293 293 292 292 292 293 294 294 294 295 296 296 297 298 298 298 298 299 300 300 300 300 300 301 301 302 302 302 302 302 302 302 301 300 301 302 302 302 302 302 302 304 306 308 309 310 311 312 312 310 310 309 310 310 310 309 310 309 308 308 308 308 308 308 309
285 286 282 285 282 278 276 276 278 279 272 274 273 278 274 281 282 285 286 288 289 288 286 288 290 291 291 290 291 292 293 293 293 293 293 293 293 293 294 294 294 294 296 296 297 298 298 299 298 298 300 300 299 299 300 300 301 302 302 301 301 302 301 302 301 301 301 301 301 302 301 301 303 305 307 309 310 310 311 310 308 309 308 308 309 310 312 311 310 309 308 308 308 308 307 307 308
280 280 279 281 281 284 281 281 279 275 274 275 274 274 277 283 287 287 288 289 290 290 291 289 290 291 291 292 293 293 293 293 294 293 293 293 293 293 293 294 294 294 295 296 297 297 298 299 298 298 300 299 299 300 300 300 301 301 300 301 300 300 300 301 300 301 301 300 300 301 301 302 303 306 307 308 309 310 312 309 308 308 308 308 308 310 312 311 310 308 307 307 307 307 307 307 308
281 280 278 280 278 277 273 271 282 279 276 273 275 273 281 286 292 291 290 291 291 291 289 289 289 290 291 291 291 293 293 293 293 293 293 293 292 293 293 293 294 295 295 296 296 297 297 298 299 299 300 300 300 300 300 300 300 301 300 300 300 299 300 300 300 300 300 300 300 300 301 300 301 302 307 308 308 310 313 312 309 308 308 309 309 310 310 310 309 309 308 308 307 308 307 305 307
Wind_Speed
9 8 4 4 3 4 5 3 2 2 1 4 4 4 3 5 3 1 3 7 1 3 5 4 5 3 4 2 3 2 4 4 1 1 0 2 4 8 5 7 5 5 4 7 8 9 9 12 13 13 16 16 17 17 16 15 14 15 17 18 17 16 16 16 15 15 14 14 13 12 12 11 10 10 10 12 12 12 11 10 10 12 10 10 10 8 11 9 8 8 6 3 3 6 7 13 15
7 7 6 4 4 2 2 3 1 1 2 4 7 4 8 5 2 1 3 3 2 3 5 4 2 3 4 3 2 2 8 6 6 6 5 6 7 6 9 6 8 6 4 7 8 9 8 9 15 13 15 16 17 17 16 15 15 15 16 18 17 17 17 16 15 15 15 14 13 12 12 11 10 10 9 8 10 11 11 12 11 9 9 10 9 9 9 8 6 4 5 6 8 9 13 13 13
7 6 6 4 5 3 4 2 2 3 4 5 4 8 6 9 3 2 3 12 7 8 5 5 2 1 2 1 1 2 3 6 11 8 3 5 8 3 7 6 5 4 6 3 9 9 8 10 13 14 15 16 17 17 16 15 16 15 15 17 18 17 17 17 16 16 15 15 14 13 12 11 11 9 9 8 8 8 9 9 9 10 12 8 9 8 10 8 7 7 6 6 11 13 10 11 11
7 5 4 3 2 2 2 2 2 3 5 4 4 5 9 9 5 9 7 6 7 4 3 4 1 1 2 4 0 2 5 5 6 8 3 3 3 6 6 6 6 5 3 4 5 9 8 12 13 14 13 16 17 17 15 15 15 16 16 15 17 17 17 16 16 16 16 15 14 13 13 12 11 10 10 9 9 8 8 6 7 7 6 5 6 7 8 7 6 9 7 6 13 12 11 10 11
7 4 3 2 2 2 1 3 3 3 8 3 3 4 4 11 8 8 7 5 4 3 1 4 2 1 2 1 3 0 3 7 4 6 4 3 4 5 6 3 6 3 3 4 7 9 8 18 13 14 13 14 17 18 15 15 15 16 16 15 15 17 17 16 16 15 14 14 14 14 13 12 12 11 11 10 9 9 8 7 6 7 6 6 11 9 9 8 9 9 7 7 12 13 11 11 10
7 6 3 2 1 1 2 2 4 7 7 3 6 2 4 4 8 8 5 7 4 5 4 3 1 3 2 1 2 2 1 2 5 6 7 4 6 9 6 5 3 7 5 5 8 8 8 19 15 14 13 13 17 17 16 16 15 16 16 15 15 15 15 15 15 14 14 14 16 15 14 13 12 11 10 11 10 9 8 8 8 8 7 5 11 10 9 9 9 9 9 11 12 13 11 12 12
3 3 1 2 3 2 2 4 6 6 7 8 8 7 1 3 9 6 5 4 3 3 2 1 2 2 2 2 2 3 3 3 5 4 6 7 7 9 7 3 2 4 6 7 6 9 11 18 16 14 13 13 16 18 18 17 17 16 15 14 14 15 15 15 14 14 14 14 16 15 14 13 11 8 9 10 10 9 9 9 9 10 9 4 10 9 9 8 10 9 10 12 13 13 12 12 13
4 2 2 2 2 2 3 5 7 6 5 6 7 10 7 6 4 3 3 0 3 2 3 2 1 0 0 2 2 3 5 8 11 10 9 7 6 7 3 5 4 3 3 5 3 2 17 20 17 14 12 12 14 17 18 17 16 15 14 14 14 14 14 14 14 14 14 15 15 15 13 12 10 8 10 10 10 9 9 10 10 11 11 6 9 8 7 4 10 9 11 11 12 13 13 11 11
3 2 1 2 3 2 3 7 8 7 6 7 7 6 3 4 1 1 1 1 4 2 6 4 3 4 2 5 0 5 5 6 8 9 8 8 8 10 6 5 6 3 2 4 7 7 9 17 17 16 13 11 12 13 14 15 15 14 14 14 13 14 14 14 14 14 14 15 15 14 13 12 10 11 11 11 10 11 10 11 11 11 10 9 9 9 8 5 11 9 12 12 12 12 12 12 12
2 2 2 2 2 6 5 6 8 6 8 9 10 4 4 4 3 1 2 3 3 1 3 5 4 5 3 2 4 3 5 7 8 6 6 6 5 5 7 6 7 6 3 4 7 6 6 10 13 14 13 10 10 11 12 12 13 14 14 14 14 14 14 14 14 14 14 14 14 13 12 12 12 13 13 12 12 11 11 11 11 12 10 11 10 9 10 8 11 9 13 12 12 12 11 11 12
2 3 2 2 4 5 7 6 8 6 9 6 9 9 7 6 5 3 3 3 4 3 4 6 3 5 3 3 1 3 10 8 8 8 5 6 4 3 7 8 7 6 5 5 5 7 6 7 12 10 10 11 9 9 10 12 12 13 14 14 14 14 14 14 14 14 14 14 15 14 13 14 13 13 12 12 10 8 11 9 10 11 11 13 11 10 8 10 10 10 13 13 13 12 12 12 12
3 3 2 3 5 6 6 7 7 7 5 6 7 8 4 4 4 3 4 5 4 5 5 6 1 4 4 3 2 4 9 8 7 7 7 4 4 3 4 5 7 5 4 5 6 7 8 7 7 9 10 9 9 8 9 11 12 11 12 14 14 14 13 14 14 14 14 14 15 14 13 14 14 13 11 12 10 8 9 9 10 8 12 12 12 11 12 10 11 13 14 14 14 13 13 13 12
3 3 4 3 4 5 5 8 7 6 5 6 6 2 7 6 6 6 5 5 4 4 5 11 3 0 2 3 2 6 7 6 7 7 7 4 4 3 3 3 3 7 6 5 5 7 7 8 7 6 7 9 8 8 8 10 12 12 11 12 12 13 13 13 13 14 13 14 14 14 13 13 14 14 12 11 11 9 8 10 9 8 9 11 11 13 13 13 14 15 14 14 14 13 12 12 12
2 2 2 5 3 7 6 5 6 7 5 4 4 2 6 5 6 5 3 5 6 7 1 10 4 3 3 1 2 5 5 7 10 6 4 5 5 3 4 4 3 3 5 4 6 8 7 8 9 7 7 6 5 7 8 8 9 11 11 11 11 11 11 12 13 13 13 13 13 13 13 13 12 13 13 12 11 9 8 11 10 9 9 10 10 14 14 15 15 15 15 14 14 14 13 11 11
3 2 2 3 4 4 7 9 6 7 6 3 1 3 3 3 3 4 4 4 5 4 1 2 5 6 3 8 4 6 8 8 9 5 5 5 5 4 4 4 1 1 1 5 6 7 8 8 9 8 8 6 6 5 4 6 9 9 10 10 10 10 10 11 12 12 12 12 13 13 13 14 12 12 12 12 12 10 9 10 11 10 10 10 10 14 15 16 16 15 14 14 14 13 12 11 10
1 3 2 3 7 7 5 7 6 9 4 3 2 4 2 3 0 1 0 1 1 1 0 1 0 4 0 3 2 4 12 8 8 7 6 4 4 4 2 1 3 0 1 2 3 6 7 6 6 8 8 8 6 6 6 6 8 11 9 10 12 11 10 10 10 11 11 11 12 13 13 12 11 10 12 10 12 11 10 8 11 11 12 11 12 13 14 15 16 15 14 15 14 13 12 11 9
1 1 3 4 10 9 5 7 5 8 3 4 4 4 4 3 3 1 1 1 1 2 1 1 2 2 3 3 3 11 10 9 8 6 6 4 3 4 3 2 2 2 1 2 0 1 1 4 6 8 8 9 8 8 6 8 9 12 10 10 11 11 11 11 9 9 9 10 11 11 11 9 7 7 8 7 11 9 9 10 11 13 13 12 13 12 14 13 14 15 16 16 14 12 10 10 10
1 4 5 9 7 11 6 10 7 4 5 4 6 4 3 4 2 2 2 1 3 5 3 3 3 4 3 3 8 6 7 7 6 7 5 5 4 5 5 4 4 5 4 3 3 3 1 2 1 2 4 6 9 8 6 7 7 10 8 7 8 9 9 9 8 7 8 5 9 9 8 7 7 6 7 8 7 8 8 10 11 13 13 13 13 13 14 14 15 16 16 16 15 12 12 7 6
6 3 7 13 9 9 7 8 9 7 9 6 4 3 1 3 2 4 2 3 6 6 7 5 5 5 4 4 7 7 5 5 5 6 7 7 7 7 7 6 5 5 5 4 4 3 3 2 3 1 3 1 4 4 4 6 7 6 7 7 6 9 8 9 8 9 6 6 6 7 7 7 7 7 7 8 7 10 9 10 11 12 13 13 14 13 12 15 15 15 16 14 13 14 9 6 5
8 5 11 11 6 7 10 10 8 7 4 4 6 6 4 1 1 3 3 3 4 9 6 6 9 8 7 6 6 6 6 6 5 7 7 8 7 7 7 7 8 6 8 7 7 4 6 5 4 4 4 3 3 3 3 7 5 5 6 6 6 6 6 7 8 8 9 9 8 8 8 7 8 6 9 13 11 8 8 11 11 12 12 13 14 10 11 14 16 15 14 13 10 7 5 6 6
3 9 11 6 8 11 12 12 5 4 4 1 3 1 4 3 3 2 3 5 7 6 6 7 8 10 8 8 8 7 7 7 7 7 7 8 7 6 6 6 8 7 7 8 7 6 6 5 6 5 4 5 4 5 4 5 6 6 6 6 6 6 6 6 6 7 8 10 10 8 8 8 8 7 7 7 9 8 7 6 6 6 6 7 11 6 6 8 10 8 8 8 6 7 6 6 6
1 14 12 7 7 8 2 2 4 1 2 1 2 4 3 1 3 5 6 9 6 4 3 2 4 8 9 9 10 9 9 9 9 9 10 9 10 8 5 5 3 5 5 6 6 8 7 5 6 6 5 5 5 5 6 6 7 7 7 7 6 6 6 6 6 6 7 8 9 9 9 8 8 8 8 7 9 8 8 7 7 6 7 7 8 7 6 7 7 7 7 7 6 6 6 6 7
10 9 8 12 11 11 2 1 1 1 0 1 1 2 3 1 3 4 6 11 7 7 2 2 1 4 3 4 9 10 10 10 11 11 11 10 9 9 7 5 5 5 5 6 6 7 7 6 5 6 6 5 6 5 4 5 6 6 7 7 6 7 7 7 7 7 7 8 9 9 9 9 8 8 8 6 9 8 8 8 8 8 8 8 8 8 8 7 7 7 7 8 7 7 6 6 6
11 10 6 10 9 14 11 3 4 2 1 2 1 3 2 2 8 3 10 8 11 8 6 6 1 0 1 4 2 12 12 12 11 11 11 13 12 11 9 8 5 5 4 5 4 6 8 7 6 5 6 6 5 5 4 6 5 5 5 6 7 7 6 7 7 7 7 8 10 9 10 9 9 9 9 8 7 8 9 8 9 9 8 8 7 8 8 8 8 8 8 8 8 7 8 8 6
13 12 9 9 9 9 5 2 3 2 3 2 2 2 6 6 7 3 11 10 9 7 7 7 7 5 2 3 5 3 10 10 10 10 8 9 9 9 7 6 6 5 6 6 6 6 7 8 7 7 5 7 6 5 4 4 4 5 4 4 6 6 7 7 6 6 7 6 8 9 9 9 9 9 9 9 7 9 9 9 9 10 10 9 8 9 9 9 9 9 8 8 8 7 8 8 6
11 10 6 8 10 5 5 4 2 4 2 2 4 8 8 8 6 12 11 17 9 9 7 8 8 7 7 8 7 6 5 8 10 10 12 9 8 9 10 9 7 8 8 7 7 7 6 8 9 9 7 7 7 6 6 5 4 5 5 4 5 4 5 6 6 6 5 5 6 8 10 9 9 9 10 9 9 9 9 9 9 9 10 10 10 11 10 9 10 9 9 9 10 9 8 8 6
0 6 11 12 9 6 2 4 3 3 4 3 7 9 9 5 7 8 6 16 12 12 12 12 9 10 12 7 7 7 8 8 9 9 8 8 9 10 11 10 10 9 7 8 7 7 6 7 8 8 7 6 5 6 6 6 5 4 5 4 4 5 4 4 4 6 6 5 5 4 8 10 8 8 9 9 9 9 8 9 9 9 9 10 10 10 10 10 10 10 10 10 10 9 8 7 7
2 3 4 5 5 6 4 4 5 3 4 8 6 10 9 8 7 14 9 1 6 8 11 11 10 14 12 10 9 9 10 9 8 8 12 11 11 11 11 12 12 9 9 9 7 6 6 8 8 8 9 7 7 6 5 6 7 5 4 5 5 5 5 5 4 4 4 5 5 4 4 6 8 7 9 9 9 9 8 9 8 8 9 9 10 10 11 11 10 11 10 9 9 8 7 6 7
1 1 4 6 6 9 10 10 6 5 5 6 5 7 13 10 11 14 16 7 4 5 7 8 11 11 11 11 11 10 12 10 7 9 13 12 11 10 13 11 11 11 8 8 8 7 7 7 8 8 9 7 7 7 7 5 6 5 5 5 5 5 5 5 6 6 4 4 4 4 5 5 4 6 6 7 9 9 8 9 8 8 9 10 10 11 12 10 8 9 9 9 9 8 7 6 6
0 1 4 6 7 12 11 9 9 9 5 7 6 9 14 10 18 17 17 13 14 9 12 10 7 8 9 9 9 10 9 9 12 14 10 10 10 10 10 9 10 10 8 7 7 10 7 5 6 6 8 9 8 7 6 6 5 5 5 5 5 6 5 5 6 5 4 4 4 3 4 4 4 4 4 5 5 6 9 9 9 7 6 8 9 8 9 9 8 9 11 10 10 11 10 10 9
2 6 4 6 5 9 8 12 11 11 6 10 6 11 15 7 7 17 14 11 12 15 15 13 11 8 8 9 8 9 9 11 13 13 11 10 9 9 10 8 9 10 8 8 11 11 9 7 6 6 7 8 8 7 7 6 5 6 6 6 5 4 5 6 5 4 4 4 3 3 3 3 3 3 5 5 6 7 7 8 10 10 9 7 8 8 9 10 11 11 11 12 12 11 10 10 11
4 2 5 4 8 5 4 3 14 13 2 11 6 12 15 13 11 4 5 9 12 13 12 11 10 8 8 8 9 10 10 9 10 11 11 12 10 10 11 12 11 9 11 10 10 10 11 8 7 7 6 8 8 8 7 7 6 6 6 6 6 5 5 6 5 6 5 4 4 3 4 4 3 3 3 3 5 7 7 6 6 4 4 5 6 6 6 9 10 9 10 11 10 11 8 5 6
6 9 5 4 8 8 1 3 7 11 5 5 14 9 2 4 2 4 2 7 7 8 8 8 7 7 8 8 8 9 9 9 9 11 11 11 10 10 10 10 11 12 11 11 11 10 10 10 10 9 9 8 7 7 6 5 6 5 6 6 5 5 6 6 5 6 6 5 5 5 4 5 4 4 4 3 3 3 5 4 3 6 8 7 5 4 3 3 5 5 7 8 8 8 8 10 10
8 6 9 5 5 6 7 2 4 3 11 9 14 11 12 2 3 1 1 3 5 5 7 7 7 5 5 6 8 9 9 8 10 11 12 11 9 11 9 10 10 10 10 11 10 12 12 10 9 9 8 7 6 6 6 6 6 5 5 5 5 6 5 5 5 5 5 5 5 5 4 5 5 5 4 4 3 3 4 5 5 5 5 7 9 8 6 3 3 6 8 7 9 9 9 9 9
6 5 7 8 9 12 7 6 7 5 7 7 9 14 17 10 9 4 4 4 5 8 8 7 7 6 7 7 7 8 9 10 13 11 9 11 11 11 11 10 10 9 9 10 8 8 8 8 7 8 7 7 6 6 5 5 5 5 4 5 5 5 5 6 5 5 5 5 6 5 5 6 7 6 6 5 4 5 4 5 6 4 5 5 4 5 8 9 6 5 8 8 9 9 11 10 7
8 9 7 8 9 10 14 5 5 16 10 9 9 12 15 14 14 12 11 5 7 8 7 6 7 7 7 7 8 9 10 13 11 9 9 10 11 11 11 10 9 9 9 10 9 8 8 7 6 6 7 7 5 5 6 6 6 7 7 5 5 6 4 5 5 5 5 5 5 5 5 6 5 6 6 6 6 5 4 6 6 5 6 6 6 6 5 5 9 9 8 8 10 8 7 7 9
2 2 4 4 7 7 2 2 4 8 4 11 13 14 14 12 9 9 14 12 13 12 10 9 8 9 10 10 10 10 10 12 7 10 9 12 14 13 11 10 10 10 9 10 11 10 10 10 9 10 8 8 8 8 8 8 8 7 7 9 9 6 6 5 6 5 4 5 5 4 5 6 5 5 5 5 6 6 5 4 6 6 6 6 6 6 6 6 5 5 6 6 11 12 9 9 12
10 6 6 7 4 4 1 2 4 5 3 5 9 13 17 15 11 11 11 11 17 14 10 11 12 11 12 14 14 13 12 6 7 6 8 10 10 11 10 10 9 12 11 11 13 13 11 10 11 10 8 9 10 10 9 9 9 9 9 9 7 7 7 7 7 7 6 4 5 5 5 4 5 5 5 6 6 6 6 6 4 5 6 6 6 5 5 5 6 7 6 7 5 10 10 13 14
10 9 10 8 10 3 2 3 3 3 2 8 4 10 14 12 8 7 10 15 16 10 12 14 13 14 13 13 14 14 11 12 11 12 9 10 12 13 12 12 13 16 16 16 15 13 12 12 11 10 9 10 10 10 9 10 8 7 8 6 8 5 5 6 5 5 6 6 6 6 6 5 5 5 5 5 5 4 5 5 5 4 4 5 5 5 4 5 4 6 8 8 6 4 2 4 15
11 10 10 14 9 6 6 2 2 3 4 2 3 7 14 11 9 14 14 15 17 11 13 17 15 17 16 17 16 15 15 15 16 17 14 14 13 13 13 13 14 12 11 12 14 15 12 12 11 11 11 10 10 10 10 8 8 6 6 6 7 7 6 6 6 6 7 8 8 7 6 6 5 5 5 5 5 5 5 5 4 4 4 4 5 5 5 5 5 5 4 6 6 7 4 5 8
11 12 11 12 7 5 8 2 3 1 4 2 4 7 14 12 10 9 12 17 17 16 17 18 17 17 18 16 15 16 18 17 18 17 15 13 13 15 16 16 13 13 13 14 14 14 11 14 14 13 11 12 10 11 11 8 8 7 7 5 7 5 3 8 8 8 9 8 7 7 7 6 6 6 6 6 6 6 5 6 5 5 5 5 5 6 7 8 7 7 8 7 8 9 6 5 10
8 12 14 12 4 4 4 4 6 1 4 3 3 5 10 13 10 14 12 8 16 17 12 18 19 16 16 17 19 17 16 16 17 18 15 13 14 13 13 14 14 13 14 14 13 13 12 12 12 11 9 10 11 11 12 10 10 10 9 9 9 9 7 8 10 9 7 8 8 5 4 6 6 6 6 6 7 6 7 7 6 6 6 6 6 6 6 6 7 8 10 10 10 10 9 8 8
9 7 13 13 8 6 6 7 3 4 7 3 6 8 13 11 4 6 4 6 14 7 10 18 14 14 14 16 15 15 16 16 15 15 10 9 11 12 14 14 15 14 13 8 9 11 11 11 11 12 11 10 10 11 12 10 10 9 11 11 8 9 9 6 4 5 6 5 5 5 6 6 6 7 6 7 7 7 7 7 7 6 6 6 6 6 6 8 8 8 8 9 10 9 9 11 13
11 2 5 11 14 13 8 8 8 4 1 2 2 3 6 16 11 5 5 6 8 8 11 14 11 12 13 13 13 14 16 16 15 14 13 8 8 13 15 15 13 14 9 9 9 10 13 12 12 12 10 10 10 11 13 12 11 10 10 9 8 8 8 7 7 6 5 6 7 8 7 7 8 8 8 7 7 7 7 7 6 6 6 7 6 7 8 7 6 7 9 11 10 11 12 12 13
4 1 4 9 12 11 6 6 4 3 2 8 6 2 3 9 6 5 9 7 7 13 14 13 10 10 11 12 13 15 16 15 13 13 13 14 12 11 11 12 11 9 9 11 11 10 10 11 11 11 11 11 11 12 13 12 10 11 10 9 9 6 7 6 7 7 8 8 8 8 8 8 8 8 8 7 7 7 7 6 5 5 6 6 7 7 7 8 9 9 8 9 10 10 11 12 11
3 2 5 3 3 4 6 4 4 1 3 9 10 9 7 17 8 2 1 6 11 14 16 11 11 11 11 13 15 15 13 10 11 13 11 11 12 11 9 8 8 10 9 8 8 8 10 10 11 13 12 11 11 12 13 13 10 9 10 9 10 8 7 7 6 8 8 7 7 7 8 8 8 8 8 7 7 6 5 6 6 7 8 8 8 9 9 9 8 9 10 10 10 12 10 12 14
5 5 6 4 2 2 2 4 4 2 8 13 13 10 11 9 14 9 9 10 12 8 5 8 9 10 14 15 15 13 12 10 10 11 11 10 9 8 7 10 9 7 8 10 10 10 10 11 12 13 13 10 11 12 13 14 11 9 10 10 10 8 7 7 7 5 5 5 6 4 4 4 4 5 6 6 6 5 5 6 7 8 8 9 9 9 10 10 9 9 10 11 12 13 11 12 13
11 2 4 5 4 1 1 2 4 5 8 12 16 8 9 10 16 5 12 8 8 10 11 10 11 15 15 14 12 10 8 9 9 8 7 7 6 6 6 7 8 9 8 10 10 10 11 11 12 14 12 11 11 11 12 12 11 10 8 9 9 8 8 7 8 7 6 6 6 6 6 5 4 6 4 4 4 5 6 6 7 7 8 9 10 10 10 10 10 9 9 10 10 12 12 13 13
8 6 7 10 5 4 4 4 8 9 11 4 3 15 3 17 21 10 3 4 6 6 6 7 6 8 11 10 9 5 4 4 4 5 6 7 8 9 9 7 7 9 11 11 12 11 11 11 13 14 13 11 12 11 12 11 11 10 9 9 8 8 8 8 7 7 6 7 7 6 6 7 7 7 6 6 6 6 6 6 7 8 8 8 9 9 10 10 10 9 9 10 11 13 12 13 12
9 11 10 10 8 7 6 7 3 5 7 7 8 16 9 3 15 28 22 23 16 11 10 6 2 5 6 6 5 4 2 3 3 4 4 6 8 8 9 10 10 10 11 12 12 12 11 11 12 13 12 10 10 11 11 11 11 9 7 7 8 8 8 8 7 7 6 6 7 7 7 7 7 7 5 6 6 5 6 7 7 8 9 9 10 11 11 9 9 9 9 10 12 12 11 14 14
12 5 10 10 8 5 6 6 10 9 9 3 3 6 6 10 12 2 11 17 21 23 19 15 16 9 6 6 5 5 5 5 5 5 6 6 6 7 9 10 9 11 12 12 11 12 11 11 12 12 12 10 11 11 10 10 9 8 7 7 7 6 7 7 7 6 6 6 5 6 6 6 7 6 6 5 4 4 5 5 6 8 9 11 12 12 11 11 9 8 9 11 11 9 11 12 11
7 7 6 10 14 5 11 7 9 8 5 0 4 6 6 10 13 3 3 2 6 14 17 15 13 10 6 6 7 7 6 6 6 6 6 6 6 5 6 8 8 10 11 10 11 12 12 13 12 12 12 11 10 10 9 10 8 8 7 7 7 7 6 6 6 5 6 6 6 7 6 5 5 4 4 4 4 4 5 7 8 10 11 12 12 12 12 10 10 9 8 8 10 8 10 12 11
7 8 15 11 4 11 10 10 4 2 6 11 5 2 7 8 17 20 15 7 2 4 7 6 6 6 7 7 7 8 8 8 8 8 8 8 6 6 6 7 7 8 10 11 11 12 13 13 13 12 11 9 10 10 9 8 8 8 7 7 7 7 7 7 8 6 6 5 6 6 6 5 4 4 5 4 3 3 7 9 9 10 10 10 10 10 10 9 8 9 9 9 9 9 10 12 10
5 14 12 7 10 3 3 8 4 8 12 8 12 14 8 8 12 4 14 15 16 14 10 7 8 7 7 10 10 10 10 9 9 9 8 9 9 8 7 7 7 8 10 10 10 8 8 9 11 12 11 12 9 9 9 9 9 9 8 8 7 7 7 6 6 6 5 6 4 4 4 4 5 5 4 4 4 7 8 9 8 9 8 7 8 8 8 8 7 6 8 9 9 7 9 8 9
12 6 7 12 7 15 8 2 12 10 12 8 11 15 14 16 16 9 6 6 7 13 15 15 11 8 10 11 11 9 6 6 8 8 8 8 9 9 9 8 8 8 9 9 8 8 7 7 8 9 11 11 11 9 8 7 8 7 7 8 8 7 6 6 5 5 4 5 6 5 5 5 4 5 6 5 5 7 8 8 7 6 6 5 4 6 7 6 7 7 7 7 6 7 8 9 9
2 1 5 7 5 9 11 11 3 6 12 7 13 10 11 8 13 17 22 20 8 4 5 13 14 14 11 9 9 7 7 7 7 8 8 9 9 9 9 9 10 10 9 9 9 7 8 8 9 7 7 8 8 9 8 9 8 7 7 7 6 7 6 7 6 6 6 6 5 5 5 4 5 5 5 4 5 8 8 7 5 5 4 4 4 5 7 7 6 6 6 6 7 8 9 10 9
8 7 7 5 5 0 2 2 13 10 8 10 9 12 9 9 10 17 21 18 11 10 11 6 11 12 11 9 9 7 7 8 9 9 8 9 8 8 7 7 8 7 8 9 9 10 8 8 8 8 11 10 10 10 9 8 8 8 9 9 8 7 7 6 6 6 6 6 5 5 5 5 4 5 5 4 6 8 8 5 4 5 4 5 4 5 6 8 8 6 5 5 5 6 7 7 8
12 12 13 12 7 10 9 9 3 8 8 9 8 16 5 6 9 14 14 12 10 9 7 6 7 10 7 5 5 7 7 6 7 6 6 7 7 7 6 7 6 8 8 9 8 8 8 8 9 9 9 9 10 10 10 9 8 8 9 8 8 7 7 6 6 6 6 6 5 5 5 4 5 4 4 4 6 6 6 5 4 4 5 5 5 6 7 8 9 10 10 8 8 9 6 4 6
Wind_Direction
296 289 268 266 272 260 275 210 255 174 229 238 257 243 253 228 226 151 153 87 188 62 81 85 20 33 26 34 18 303 26 42 58 136 119 160 150 115 134 161 151 166 170 135 144 150 156 157 166 174 175 172 169 167 165 163 161 162 165 165 165 165 161 159 159 157 156 155 155 153 151 150 152 156 163 165 161 153 149 151 152 155 155 150 148 148 145 151 136 141 163 84 126 130 140 114 106
301 308 292 254 247 263 216 183 246 223 181 253 240 251 250 287 11 286 275 153 58 95 77 66 77 49 51 18 316 339 72 48 69 93 80 127 133 129 134 170 173 165 181 155 145 157 163 159 165 171 177 174 171 169 165 165 162 162 166 167 168 168 164 163 162 160 160 160 158 157 154 153 155 159 162 171 170 166 169 165 165 170 168 159 159 140 130 128 120 99 77 90 60 70 95 108 114
307 305 293 217 255 225 312 189 241 236 225 232 229 206 236 269 209 230 45 76 95 100 94 79 78 98 115 335 259 205 95 101 92 95 107 148 136 156 130 119 170 193 173 179 156 163 164 163 161 171 177 177 173 170 166 165 163 165 167 169 170 170 168 166 166 165 165 164 162 160 159 157 157 162 165 168 175 175 179 180 177 183 185 167 171 186 160 144 158 132 115 110 105 99 107 111 116
284 267 282 281 222 191 240 159 260 256 248 247 285 209 201 218 189 89 106 88 104 123 123 121 156 346 328 172 299 358 125 109 101 129 117 183 51 143 120 176 146 205 216 169 180 166 167 160 159 168 176 180 174 172 167 166 166 168 169 169 172 173 172 171 170 169 170 168 167 165 164 163 163 166 170 173 176 180 185 192 197 196 185 169 144 143 147 150 143 137 141 121 124 113 114 123 117
277 262 220 297 288 171 225 208 216 208 242 252 235 265 236 192 114 104 84 109 68 90 124 101 111 21 14 355 342 6 72 104 82 78 100 103 184 97 146 208 156 130 217 211 191 166 173 153 159 166 171 183 175 174 169 168 171 170 171 172 173 175 174 174 174 173 172 171 172 170 170 170 166 174 174 180 183 187 187 195 208 222 211 157 136 141 148 156 138 145 149 148 134 125 128 129 125
263 272 177 275 262 341 338 246 217 228 240 272 280 3 337 47 87 107 109 85 82 51 29 124 31 110 208 171 8 64 247 176 127 114 129 131 137 138 136 210 169 158 175 196 198 158 159 153 157 163 169 183 177 176 174 171 175 174 174 175 175 176 176 176 175 174 174 176 174 177 176 177 176 179 186 181 187 195 202 202 201 221 225 176 150 154 158 170 148 150 153 135 130 129 139 136 130
282 254 174 217 275 172 246 228 240 234 225 222 255 283 73 65 103 115 126 105 73 100 15 72 111 104 293 98 91 92 75 68 144 74 96 143 132 132 176 138 140 142 178 181 172 163 145 153 155 161 169 178 181 178 177 176 177 177 176 176 175 176 176 176 176 176 174 179 176 180 180 179 186 179 179 179 191 200 206 207 199 204 215 199 160 168 165 188 153 157 144 135 134 137 146 141 138
267 294 157 192 226 146 235 252 245 231 237 229 241 257 295 118 97 109 122 158 146 193 188 104 69 333 72 161 173 108 84 61 95 113 129 126 134 116 157 132 135 151 184 150 142 139 148 154 159 157 167 175 186 184 181 180 180 179 177 178 176 176 177 177 177 177 176 179 181 184 181 179 179 174 170 183 193 198 196 199 198 195 207 199 170 156 167 175 147 162 143 144 142 148 148 142 134
265 235 300 271 252 192 235 234 251 244 263 265 254 98 34 55 135 59 125 174 96 255 151 162 185 110 207 155 326 155 100 118 108 114 118 138 153 150 152 145 128 160 184 142 89 115 143 158 159 158 160 173 183 189 188 184 182 183 179 179 179 179 179 179 179 180 179 180 183 186 179 176 171 174 178 185 190 193 187 192 197 195 199 195 164 153 166 165 147 159 147 150 150 148 141 143 146
266 200 181 225 232 236 222 237 243 232 244 240 261 227 149 148 191 202 263 190 174 203 158 157 167 215 83 178 92 203 145 127 127 122 130 129 134 158 134 127 130 156 190 131 120 114 130 157 156 160 159 161 168 183 188 192 187 185 182 182 183 181 181 181 182 183 181 181 182 184 176 173 174 178 183 187 189 201 176 191 198 188 191 183 159 159 175 166 153 159 149 144 137 139 143 151 150
249 181 311 235 226 245 228 247 236 234 241 244 247 247 183 169 189 194 206 257 168 182 98 111 181 232 262 264 71 100 133 136 142 135 137 123 127 175 145 137 138 156 176 137 140 132 137 152 158 149 150 150 151 161 177 191 193 189 188 189 187 186 185 184 184 184 184 181 181 183 178 176 177 182 184 186 191 207 176 190 198 192 168 169 161 160 154 156 155 148 148 146 141 143 148 155 158
249 211 155 232 231 216 230 245 253 260 245 238 242 236 126 159 180 188 205 216 218 196 165 161 202 172 224 243 143 140 139 149 148 141 127 133 135 122 66 122 142 152 145 152 147 138 150 154 153 148 140 143 147 152 170 184 195 196 191 192 192 192 189 188 188 188 187 184 183 185 183 178 179 185 183 183 194 200 183 183 197 198 164 168 164 153 146 148 146 144 149 148 145 149 156 161 160
248 213 201 239 231 239 249 253 251 263 258 248 263 200 118 165 188 194 201 213 228 224 201 175 107 343 231 195 75 133 154 167 137 142 137 146 111 87 100 77 111 135 153 172 157 146 155 157 160 149 144 140 138 142 157 181 189 193 191 192 194 196 195 193 193 191 190 189 187 186 187 183 181 185 184 185 193 193 193 178 193 199 173 171 170 148 151 152 151 152 153 157 152 155 164 162 162
226 242 201 236 218 256 256 258 261 258 247 270 273 228 168 169 194 199 199 214 211 224 218 172 181 126 258 14 156 166 187 169 134 134 150 132 125 124 104 100 54 105 149 173 172 151 151 171 161 158 147 151 147 140 151 165 180 188 190 190 193 199 201 197 197 196 193 191 190 188 187 187 185 188 187 186 192 188 192 182 190 191 180 174 171 151 156 159 159 157 158 162 160 158 166 163 160
253 270 279 265 252 235 228 246 243 252 254 248 71 82 93 188 182 208 209 215 234 12 46 304 163 100 236 193 216 182 177 165 128 111 82 70 88 75 73 94 67 51 327 182 170 163 162 180 167 156 162 175 157 157 152 164 165 173 180 186 188 196 202 204 199 199 197 192 190 190 189 189 190 188 189 186 191 187 189 193 187 187 176 177 171 155 162 165 163 161 159 164 163 164 169 165 162
249 324 251 238 239 234 225 241 226 260 248 297 129 35 173 142 105 195 53 42 32 280 4 215 157 190 93 172 10 282 148 117 116 109 99 92 94 85 80 138 141 12 286 330 178 177 174 170 166 145 170 181 176 173 169 162 175 169 180 183 184 190 196 200 198 201 199 195 191 189 189 191 192 191 189 187 191 189 188 192 189 183 177 179 182 161 166 168 166 162 161 166 169 170 169 166 160
15 311 253 227 243 224 216 245 220 233 245 223 103 140 176 211 143 83 61 58 317 211 122 291 195 318 265 87 56 67 91 106 111 114 107 116 118 142 146 211 166 160 344 293 261 19 147 154 168 160 175 181 186 172 181 166 172 173 178 176 181 185 190 196 201 197 199 201 193 188 184 185 188 190 190 189 192 191 188 188 186 183 179 180 186 175 169 170 168 167 164 168 165 165 165 159 152
129 226 220 239 222 228 215 235 230 264 261 140 224 155 200 238 125 143 53 305 260 279 243 243 280 232 269 90 95 83 97 118 133 133 146 147 176 173 166 199 185 175 188 251 272 161 178 139 183 185 162 180 175 170 183 160 164 171 178 175 180 185 189 187 183 191 200 196 194 185 187 189 187 191 187 192 190 190 188 188 185 181 182 180 185 187 170 173 171 171 169 167 162 158 152 146 151
199 221 213 233 212 234 225 239 245 254 253 254 155 154 239 247 152 142 198 197 204 237 245 240 231 245 219 116 116 124 138 131 158 158 162 177 189 181 179 179 196 168 187 200 229 191 178 164 174 204 145 107 93 100 103 126 152 169 172 175 185 186 187 186 190 192 194 194 181 185 192 194 195 191 190 188 190 190 190 184 185 184 181 181 185 188 173 173 173 174 173 167 156 151 149 148 145
218 215 226 230 227 249 239 238 246 254 340 321 123 187 201 248 316 104 210 247 213 206 223 222 227 232 216 167 157 155 156 164 176 178 183 195 191 195 181 183 185 188 179 184 193 194 176 176 184 189 153 157 131 129 140 136 154 169 173 170 178 183 185 188 191 187 190 193 191 190 192 194 196 200 196 185 189 185 192 177 183 188 182 180 181 184 177 174 173 175 175 161 150 158 163 154 150
178 222 230 221 207 235 244 260 276 18 53 303 301 353 168 225 241 184 206 233 234 248 225 215 213 222 216 196 170 166 174 173 185 193 199 199 209 205 202 192 179 189 174 175 170 188 184 183 174 185 165 164 166 165 170 169 158 172 186 174 176 176 184 184 196 187 189 189 190 191 195 193 191 201 197 185 188 186 182 169 177 185 183 185 180 178 175 175 170 171 171 153 162 169 179 172 155
227 225 227 234 250 243 258 110 79 71 44 334 300 292 236 190 256 219 230 233 223 203 222 284 256 216 200 209 183 171 178 183 189 196 201 201 203 209 208 214 205 168 164 166 179 175 186 194 171 175 168 170 178 183 174 186 168 176 178 173 175 175 181 184 192 190 189 190 191 192 192 196 195 196 201 186 187 183 184 178 176 179 185 186 180 181 179 174 174 170 167 167 172 181 191 193 165
241 239 234 234 244 264 165 124 81 74 212 250 273 295 359 207 242 241 236 236 240 240 268 253 74 24 348 233 178 174 180 191 194 199 199 205 207 209 208 198 192 199 181 186 177 167 183 192 178 165 176 174 182 201 179 181 180 179 172 171 172 184 178 181 188 196 189 188 192 191 191 195 197 198 201 197 185 183 188 184 182 184 185 188 182 186 183 178 179 174 173 179 179 184 198 206 175
225 240 234 243 242 251 265 259 121 84 274 232 266 55 229 249 257 207 239 244 247 252 265 275 286 58 347 348 252 180 189 194 201 203 202 204 203 206 202 201 202 188 174 191 186 166 179 190 189 176 179 175 183 192 191 184 184 180 185 168 170 182 180 185 187 193 196 188 189 192 194 194 194 197 201 202 191 187 189 188 186 187 189 190 182 191 187 178 185 182 180 185 191 190 194 206 185
213 237 230 247 240 249 268 100 207 225 251 267 254 243 238 221 237 298 255 253 246 248 244 256 264 238 204 240 279 234 190 201 202 209 210 214 214 212 209 206 199 186 198 194 195 195 186 183 181 191 182 177 178 178 193 194 180 173 194 179 178 180 182 189 196 198 197 194 183 186 189 195 198 199 200 201 195 195 191 189 186 190 192 189 183 194 193 184 187 187 183 186 195 203 197 206 187
222 237 219 235 251 241 217 207 198 223 251 224 254 241 245 244 277 257 255 254 246 250 249 243 236 242 230 219 216 243 227 202 202 205 212 210 209 208 216 209 203 203 203 195 188 199 189 176 179 186 187 179 175 167 191 191 196 178 189 191 182 182 191 185 189 204 212 202 191 185 186 194 196 197 201 200 197 200 196 193 191 189 191 191 188 193 196 190 187 190 185 186 191 201 203 203 186
312 232 230 241 250 259 238 211 215 212 234 211 233 254 251 232 170 263 210 247 238 236 242 244 235 237 236 226 220 224 227 221 206 201 210 212 213 208 211 208 210 211 197 202 195 193 187 172 180 179 185 182 177 172 176 187 195 189 187 185 175 180 203 213 203 192 196 205 214 190 181 190 192 196 199 201 204 201 202 199 197 191 193 193 193 194 197 195 189 193 191 187 189 196 201 188 183
37 23 331 285 269 274 281 271 213 172 248 214 232 258 260 243 218 240 245 213 204 202 227 233 228 234 237 232 225 222 226 226 210 198 210 207 210 210 210 207 210 208 200 202 196 188 181 182 178 178 181 179 178 184 176 177 186 193 185 178 189 188 181 192 216 221 202 192 195 210 195 180 188 190 194 201 205 201 202 204 201 196 196 196 198 197 197 199 192 193 190 186 190 193 199 188 184
55 13 278 258 260 259 235 235 228 180 239 179 197 274 262 231 233 234 231 229 235 211 220 220 218 225 226 225 226 226 225 222 215 209 210 206 207 203 211 206 200 202 206 196 193 190 195 185 176 182 175 179 178 182 183 184 179 183 183 182 187 194 182 181 198 210 213 211 200 189 192 192 175 178 180 195 204 205 203 202 208 208 202 198 196 199 199 202 192 185 189 187 190 193 192 189 182
159 213 230 285 279 261 232 211 213 202 211 149 135 267 252 233 224 233 230 213 230 241 246 236 222 214 216 219 221 224 222 213 220 225 213 203 200 200 204 198 194 197 197 196 191 201 192 182 176 177 176 177 182 181 178 181 188 183 182 184 188 185 188 182 196 202 203 209 195 186 171 176 182 183 174 183 196 206 208 208 215 228 238 208 199 197 199 202 206 191 191 189 192 192 192 183 176
187 220 184 227 240 259 210 193 185 201 163 164 178 249 265 256 228 228 231 198 204 222 233 236 235 224 208 210 217 224 225 212 218 223 222 214 207 206 208 204 200 197 193 197 199 199 187 179 173 180 179 178 176 183 182 182 183 185 183 185 192 187 187 181 188 198 197 203 186 187 170 173 180 181 184 180 190 196 208 209 205 203 202 212 206 206 199 201 206 201 192 193 193 197 192 184 181
238 207 226 226 218 251 355 293 171 186 184 170 172 250 256 270 258 282 199 182 194 213 224 233 231 222 202 205 216 225 229 220 223 222 220 221 213 211 208 212 208 206 204 203 202 190 191 181 174 178 181 178 178 179 182 184 183 187 187 188 186 193 185 181 186 192 193 192 190 187 179 177 189 208 206 180 167 188 200 206 213 205 217 211 210 204 214 214 212 204 198 193 191 196 184 171 173
211 220 237 189 199 236 235 279 192 177 122 200 190 232 143 250 323 85 85 161 183 209 233 239 235 226 207 200 207 220 228 228 221 217 216 210 211 209 208 209 206 208 206 203 197 189 189 182 177 179 186 185 178 177 180 183 187 189 192 190 192 189 188 184 194 186 184 182 184 191 178 173 181 190 208 201 187 162 140 155 180 201 220 239 239 224 212 199 198 202 205 202 188 183 171 177 170
219 201 236 236 210 201 229 21 315 142 150 199 228 243 240 230 144 93 119 182 175 216 234 239 245 239 225 211 207 212 221 224 223 213 212 202 205 205 205 205 204 200 200 199 193 187 188 181 180 183 185 183 181 181 181 183 188 190 194 194 190 190 191 187 195 186 189 182 178 182 178 173 176 189 201 204 188 184 164 165 177 185 188 204 220 220 222 195 205 199 199 199 187 180 181 183 179
207 190 219 230 252 250 245 152 213 137 195 208 226 237 252 249 267 218 182 205 186 215 225 234 240 240 233 222 220 220 223 229 235 228 206 201 200 203 205 204 201 196 193 193 183 179 170 176 171 180 179 181 181 182 180 180 180 192 196 193 192 193 186 190 196 193 193 183 181 188 183 178 182 186 192 195 191 191 186 188 187 191 179 180 186 208 210 215 214 206 206 198 195 190 180 188 167
201 214 212 209 221 220 236 217 153 167 190 221 217 229 240 245 251 264 270 211 202 221 224 236 241 242 242 231 222 221 222 228 229 222 208 198 202 201 202 200 198 195 189 188 184 170 170 172 172 171 180 176 174 175 173 177 177 188 192 193 194 194 189 189 207 197 190 190 197 189 186 182 177 179 181 185 190 196 192 183 189 188 188 183 190 193 204 208 209 211 208 199 191 190 180 142 128
281 275 276 256 226 239 29 78 202 177 172 221 224 234 251 252 239 237 242 254 246 231 226 227 229 237 242 243 236 229 224 228 214 209 195 196 200 199 197 190 191 191 188 184 184 185 181 179 173 185 179 174 173 178 183 181 185 187 193 195 197 186 189 186 198 205 197 195 198 196 186 182 176 173 180 181 189 195 199 192 179 187 178 181 189 203 204 202 196 218 224 206 204 193 184 157 153
266 286 279 272 262 258 279 144 162 215 199 253 211 239 248 249 246 234 243 244 247 232 227 228 228 226 235 240 243 238 236 236 230 213 199 195 197 195 189 188 187 186 196 186 189 192 188 182 185 184 169 180 185 185 185 188 189 191 187 190 184 182 182 187 194 194 202 206 198 195 193 184 178 177 180 178 185 188 195 198 175 174 168 172 184 190 194 195 196 197 203 230 225 209 195 172 160
242 247 264 273 249 206 17 61 167 198 177 269 284 278 267 258 254 232 225 231 242 231 228 233 229 231 232 235 240 244 241 236 229 226 208 202 195 193 188 191 195 195 188 189 192 188 187 189 191 181 179 180 187 186 184 190 187 185 180 182 179 179 184 184 182 186 187 201 207 197 188 183 177 183 179 173 174 180 181 180 195 185 175 164 153 167 174 193 196 204 201 207 216 213 195 221 175
218 229 233 234 242 221 263 253 223 240 198 252 37 307 281 269 245 244 236 240 247 231 231 233 223 230 230 232 231 234 237 238 236 232 222 215 204 196 194 195 197 196 194 191 190 191 188 190 187 184 183 181 184 189 188 184 180 176 175 171 175 169 178 179 184 192 193 193 204 195 187 178 178 183 181 180 183 187 188 192 194 187 195 168 167 171 176 191 188 203 210 221 191 207 180 202 240
214 218 226 242 234 214 222 221 181 243 308 312 330 304 285 258 245 249 236 230 244 239 232 239 234 228 231 235 236 232 234 234 237 238 232 221 212 206 200 201 194 195 195 194 191 190 190 189 188 186 182 183 184 184 183 174 166 171 174 170 163 178 163 179 181 195 191 189 183 182 188 174 181 186 189 191 189 193 190 192 191 195 195 201 181 185 191 195 195 195 199 205 199 201 186 213 208
224 222 222 231 209 199 205 130 132 200 274 185 181 310 271 269 216 226 234 213 232 239 224 238 234 228 229 232 233 233 235 235 237 238 231 221 213 210 206 202 200 203 201 198 191 189 184 188 185 183 181 181 182 181 179 173 176 175 171 175 175 179 182 174 180 175 173 172 180 174 173 180 186 190 191 194 196 192 197 195 192 192 200 203 198 196 196 189 192 198 200 202 205 201 187 173 214
224 220 206 227 224 192 176 183 147 248 253 243 172 192 279 276 188 237 236 205 235 247 213 237 230 232 224 227 231 232 233 239 240 244 238 214 207 202 205 202 204 204 207 183 181 184 186 184 184 181 183 181 179 178 177 174 175 182 183 185 180 181 181 195 170 172 169 181 169 177 190 192 193 193 199 194 196 196 193 193 193 196 202 205 209 206 204 204 202 200 196 203 205 194 177 192 194
241 251 223 202 210 207 199 176 177 230 73 17 11 196 244 287 255 204 203 202 240 256 244 239 226 226 223 227 225 226 231 232 233 236 233 218 194 197 202 206 201 207 190 180 183 182 187 185 181 182 181 178 178 173 178 178 178 181 181 183 178 181 186 183 177 182 178 176 185 193 191 197 197 197 199 202 198 197 198 198 193 198 206 215 212 212 219 216 208 204 199 203 202 197 190 196 193
233 269 223 197 195 203 182 169 210 208 214 254 204 213 281 251 278 168 179 209 246 245 236 238 231 221 223 228 226 228 227 226 223 228 224 222 214 203 203 202 202 193 182 188 188 184 183 181 179 179 180 175 177 173 175 180 179 179 180 177 184 191 180 187 181 185 190 189 184 188 187 191 191 196 198 198 199 196 191 192 192 199 206 220 215 221 221 214 209 207 203 204 207 206 198 193 190
217 162 53 64 140 168 152 173 171 256 213 239 226 181 222 270 243 99 215 198 222 232 238 240 231 223 220 224 230 230 228 225 221 224 222 220 218 214 197 190 181 186 178 177 180 175 179 178 179 179 182 175 174 172 173 179 177 174 178 183 185 187 179 188 180 184 184 178 177 174 178 180 186 191 195 190 192 193 189 191 196 203 211 216 217 220 221 220 214 208 205 205 205 207 204 193 193
126 94 85 49 48 101 124 149 135 170 229 238 227 195 188 267 263 174 201 220 214 231 263 222 229 231 227 223 226 223 221 213 208 208 209 206 201 194 168 177 179 168 172 174 180 179 177 179 178 179 182 173 171 170 170 177 180 178 182 183 184 181 181 174 179 178 164 151 166 182 172 185 179 180 183 200 192 191 196 198 206 214 217 217 218 218 220 218 215 210 209 208 208 206 204 201 200
131 134 143 98 357 83 49 196 185 179 248 236 229 180 180 218 274 174 213 232 198 195 230 227 218 221 228 232 233 230 208 206 195 185 183 172 166 174 166 181 174 172 167 177 179 177 178 178 175 176 177 172 169 167 167 174 180 184 181 178 180 180 174 175 179 186 181 173 173 181 187 186 207 206 198 194 206 205 204 216 222 227 229 228 228 225 223 220 216 211 208 207 210 210 206 202 198
157 151 147 177 204 138 233 157 210 212 220 248 153 144 188 230 250 232 217 280 265 198 187 198 205 222 234 241 241 198 141 106 131 160 163 172 178 179 182 186 168 165 173 174 175 174 175 175 175 174 177 168 166 165 169 171 176 184 179 176 176 175 177 176 179 181 182 182 182 180 181 189 189 193 203 203 222 212 212 222 230 233 238 239 241 235 229 222 217 211 207 208 209 208 206 201 199
174 175 171 188 194 193 201 194 215 239 258 248 140 168 209 241 264 256 243 247 266 268 268 281 221 206 206 211 182 151 150 163 178 186 198 191 184 183 181 181 175 172 172 172 173 172 173 174 173 171 173 162 159 162 168 171 179 180 175 168 169 168 177 173 180 176 183 179 177 185 187 189 194 198 196 208 206 208 219 229 236 245 246 248 245 243 238 227 216 210 209 211 212 211 203 198 198
199 180 191 200 190 189 196 195 206 210 223 252 210 160 248 155 248 275 227 225 225 246 257 251 250 238 207 184 171 170 186 202 186 194 204 207 201 186 187 186 176 176 174 173 172 172 168 171 170 168 163 162 158 163 165 170 172 172 171 164 162 160 167 173 178 176 180 183 190 186 192 189 193 206 205 225 224 227 240 248 249 251 249 246 243 240 237 230 219 207 205 207 207 204 205 195 195
206 204 202 216 210 202 236 200 216 206 221 344 210 196 222 220 265 254 3 108 201 224 243 255 260 251 197 174 181 196 202 202 191 192 202 209 209 205 189 190 178 177 177 174 173 170 170 171 170 169 163 159 157 159 168 167 166 161 161 162 166 161 164 167 176 180 184 181 190 189 197 193 198 199 216 221 240 228 253 255 253 251 252 250 243 236 231 224 215 209 207 206 200 192 193 194 192
180 196 217 210 210 233 251 251 236 258 210 229 143 252 280 318 283 268 260 232 231 211 226 233 239 215 179 197 195 198 209 200 187 190 196 194 202 210 202 192 181 171 173 177 179 175 171 165 164 160 156 156 160 165 165 163 159 157 163 159 161 165 168 175 180 185 188 187 182 187 186 193 193 204 224 211 234 247 254 254 256 258 254 244 236 227 220 209 199 201 198 198 198 185 181 188 186
174 207 202 201 229 279 224 238 220 217 222 220 168 197 205 204 265 214 228 236 230 224 221 220 216 216 212 221 214 212 210 206 188 187 188 186 190 198 199 192 183 173 169 170 176 172 166 161 160 154 153 158 164 162 164 163 161 162 161 163 170 172 172 176 176 181 178 167 178 183 179 193 208 216 219 219 227 253 258 257 254 254 250 234 225 209 196 190 182 190 186 190 192 179 176 176 182
226 216 162 188 183 226 204 268 229 218 223 230 217 196 206 198 242 284 265 232 220 225 216 219 217 208 219 226 232 229 211 191 181 179 179 182 187 193 191 184 175 166 161 162 162 157 154 153 159 156 157 163 163 164 163 162 162 162 164 166 167 169 171 175 181 177 173 176 189 192 197 203 206 216 214 204 227 253 255 253 244 242 222 202 185 172 158 159 169 172 178 179 168 167 181 180 181
358 53 279 217 235 215 204 216 295 251 249 224 235 202 233 190 231 240 248 246 232 249 196 213 215 218 218 219 222 211 195 189 180 175 182 183 186 184 182 174 168 164 156 154 153 151 153 153 154 155 144 148 150 159 162 166 167 156 154 154 162 164 168 174 179 178 188 194 196 194 197 204 215 219 197 192 240 255 257 246 225 220 203 183 179 177 157 153 160 168 171 176 171 173 183 185 183
211 228 233 233 226 122 70 223 216 214 245 235 241 232 222 209 212 233 246 251 247 243 265 210 211 220 218 207 199 204 195 190 188 182 180 179 177 174 169 163 158 151 145 147 152 158 156 151 157 161 152 157 161 167 164 167 158 158 151 161 164 164 172 172 174 182 189 197 198 195 202 207 211 222 178 192 242 254 252 220 205 203 187 180 183 176 168 151 153 151 164 166 159 175 192 192 176
205 200 215 216 205 225 236 246 219 234 224 226 232 245 241 215 206 239 256 258 251 240 235 230 211 208 195 175 200 192 191 195 191 187 170 165 164 160 152 141 139 140 146 148 153 151 156 158 165 161 154 162 162 167 168 164 161 158 160 161 166 166 169 171 174 184 188 194 197 201 203 208 216 220 177 202 242 257 245 206 191 195 189 182 181 183 170 169 172 168 171 172 169 173 176 192 195